Time,TemperatureF,DewpointF,PressureIn,WindDirection,WindDirectionDegrees,WindSpeedMPH,WindSpeedGustMPH,Humidity,HourlyPrecipIn,Conditions,Clouds,dailyrainin,SoftwareType,DateUTC
2013-01-25 08:07:00,41.0,38.3,29.75,South,180,0.0,5.8,90,0.00,CLR,,0.00,WeatherDisplay:10.37,2013-01-25 16:07:00,
2013-01-25 08:12:00,41.0,38.3,29.75,South,180,0.0,0.0,90,0.00,CLR,,0.00,WeatherDisplay:10.37,2013-01-25 16:12:00,
2013-01-25 08:17:00,41.0,38.3,29.75,South,180,0.0,0.0,90,0.00,CLR,,0.00,WeatherDisplay:10.37,2013-01-25 16:17:00,
2013-01-25 08:18:00,41.0,38.3,29.75,South,180,0.0,0.0,90,0.00,CLR,,0.00,WeatherDisplay:10.37,2013-01-25 16:18:00,
2013-01-25 08:22:00,41.0,38.3,29.75,South,180,0.0,0.0,90,0.00,CLR,,0.00,WeatherDisplay:10.37,2013-01-25 16:22:00,
2013-01-25 08:23:00,41.0,38.3,29.75,South,180,0.0,0.0,90,0.00,CLR,,0.00,WeatherDisplay:10.37,2013-01-25 16:23:00,
2013-01-25 08:27:00,41.0,38.0,29.75,South,180,0.0,0.0,89,0.00,CLR,,0.00,WeatherDisplay:10.37,2013-01-25 16:27:00,
2013-01-25 08:28:00,41.0,38.0,29.75,South,180,0.0,0.0,89,0.00,CLR,,0.00,WeatherDisplay:10.37,2013-01-25 16:28:00,
2013-01-25 08:32:00,41.0,38.0,29.75,South,180,0.0,0.0,89,0.00,CLR,,0.00,WeatherDisplay:10.37,2013-01-25 16:32:00,
2013-01-25 08:33:00,41.0,38.0,29.75,South,180,0.0,0.0,89,0.00,CLR,,0.00,WeatherDisplay:10.37,2013-01-25 16:33:00,
2013-01-25 08:37:00,41.0,38.0,29.75,South,180,0.0,0.0,89,0.00,CLR,,0.00,WeatherDisplay:10.37,2013-01-25 16:37:00,
2013-01-25 08:38:00,41.0,38.0,29.75,South,180,0.0,0.0,89,0.00,CLR,,0.00,WeatherDisplay:10.37,2013-01-25 16:38:00,
2013-01-25 08:42:00,41.0,38.0,29.75,South,180,0.0,0.0,89,0.00,CLR,,0.00,WeatherDisplay:10.37,2013-01-25 16:42:00,
2013-01-25 08:43:00,41.0,38.0,29.75,South,180,0.0,0.0,89,0.00,CLR,,0.00,WeatherDisplay:10.37,2013-01-25 16:43:00,
2013-01-25 08:47:00,41.2,38.2,29.76,South,180,0.0,0.0,89,0.00,CLR,,0.00,WeatherDisplay:10.37,2013-01-25 16:47:00,
2013-01-25 08:48:00,41.2,38.2,29.76,South,180,0.0,0.0,89,0.00,CLR,,0.00,WeatherDisplay:10.37,2013-01-25 16:48:00,
2013-01-25 08:52:00,41.4,38.4,29.76,South,180,0.0,0.0,89,0.00,CLR,,0.00,WeatherDisplay:10.37,2013-01-25 16:52:00,
2013-01-25 08:53:00,41.4,38.4,29.76,South,180,0.0,0.0,89,0.00,CLR,,0.00,WeatherDisplay:10.37,2013-01-25 16:53:00,
2013-01-25 08:57:00,41.4,38.4,29.76,South,180,0.0,0.0,89,0.00,CLR,,0.00,WeatherDisplay:10.37,2013-01-25 16:57:00,
2013-01-25 08:58:00,41.4,38.4,29.76,South,180,0.0,0.0,89,0.00,CLR,,0.00,WeatherDisplay:10.37,2013-01-25 16:58:00,
2013-01-25 08:59:00,41.4,38.4,29.76,South,180,0.0,0.0,89,0.00,CLR,,0.00,WeatherDisplay:10.37,2013-01-25 16:59:00,
2013-01-25 09:00:00,42.3,35.6,29.63,NNW,338,1.0,1.0,77,0.00,CL,CL,0.00,WeatherDisplay:10.37,2013-01-25 17:00:00,
2013-01-25 09:03:00,41.5,38.5,29.76,South,180,0.0,0.0,89,0.00,CLR,,0.00,WeatherDisplay:10.37,2013-01-25 17:03:00,
2013-01-25 09:04:00,41.5,38.5,29.75,South,180,0.0,0.0,89,0.00,CLR,,0.00,WeatherDisplay:10.37,2013-01-25 17:04:00,
2013-01-25 09:08:00,41.5,38.5,29.75,South,180,0.0,0.0,89,0.00,CLR,,0.00,WeatherDisplay:10.37,2013-01-25 17:08:00,
2013-01-25 09:09:00,41.5,38.5,29.75,South,180,0.0,0.0,89,0.00,CLR,,0.00,WeatherDisplay:10.37,2013-01-25 17:09:00,
2013-01-25 09:13:00,41.7,38.4,29.75,South,180,0.0,0.0,88,0.00,CLR,,0.00,WeatherDisplay:10.37,2013-01-25 17:13:00,
2013-01-25 09:14:00,41.7,38.4,29.75,South,180,0.0,0.0,88,0.00,CLR,,0.00,WeatherDisplay:10.37,2013-01-25 17:14:00,
2013-01-25 09:18:00,41.7,38.4,29.75,South,180,0.0,0.0,88,0.00,CLR,,0.00,WeatherDisplay:10.37,2013-01-25 17:18:00,
2013-01-25 09:19:00,41.7,38.4,29.75,South,180,0.0,0.0,88,0.00,CLR,,0.00,WeatherDisplay:10.37,2013-01-25 17:19:00,
2013-01-25 09:23:00,41.9,38.6,29.75,NNE,22,0.3,0.0,88,0.00,CLR,,0.00,WeatherDisplay:10.37,2013-01-25 17:23:00,
2013-01-25 09:24:00,41.9,38.6,29.75,NNE,22,0.3,0.0,88,0.00,CLR,,0.00,WeatherDisplay:10.37,2013-01-25 17:24:00,
2013-01-25 09:25:00,36.1,33.8,29.62,NNW,343,0.0,0.0,91,0.00,CLR,CLR,0.00,WeatherDisplay:10.37,2013-01-25 17:25:00,
2013-01-25 09:29:00,41.9,38.3,29.75,West,270,0.1,1.1,87,0.00,CLR,,0.00,WeatherDisplay:10.37,2013-01-25 17:29:00,
2013-01-25 09:30:00,41.9,38.3,29.75,SE,135,0.1,0.0,87,0.00,CLR,,0.00,WeatherDisplay:10.37,2013-01-25 17:30:00,
2013-01-25 09:34:00,42.1,38.5,29.75,East,90,0.1,1.1,87,0.00,CLR,,0.00,WeatherDisplay:10.37,2013-01-25 17:34:00,
2013-01-25 09:35:00,42.1,38.5,29.75,East,90,0.1,0.0,87,0.00,CLR,,0.00,WeatherDisplay:10.37,2013-01-25 17:35:00,
2013-01-25 09:39:00,42.1,38.5,29.75,WSW,248,0.2,1.1,87,0.00,CLR,,0.00,WeatherDisplay:10.37,2013-01-25 17:39:00,
2013-01-25 09:40:00,42.3,38.7,29.75,SE,135,0.2,1.1,87,0.00,CLR,,0.00,WeatherDisplay:10.37,2013-01-25 17:40:00,
2013-01-25 09:44:00,42.4,38.8,29.74,NNW,338,0.5,1.1,87,0.00,CLR,,0.00,WeatherDisplay:10.37,2013-01-25 17:44:00,
2013-01-25 09:45:00,42.4,38.8,29.74,NW,322,0.0,2.0,87,0.00,CLR,CLR,0.00,WeatherDisplay:10.37,2013-01-25 17:45:00,
2013-01-25 09:49:00,42.4,38.5,29.74,North,0,0.9,2.3,86,0.00,CLR,,0.00,WeatherDisplay:10.37,2013-01-25 17:49:00,
2013-01-25 09:50:00,42.4,38.5,29.74,ENE,68,1.3,2.3,86,0.00,CLR,,0.00,WeatherDisplay:10.37,2013-01-25 17:50:00,
2013-01-25 09:54:00,42.6,38.7,29.74,NE,45,1.4,1.6,86,0.00,CLR,,0.00,WeatherDisplay:10.37,2013-01-25 17:54:00,
2013-01-25 09:55:00,42.6,38.7,29.74,NE,45,1.4,1.6,86,0.00,CLR,,0.00,WeatherDisplay:10.37,2013-01-25 17:55:00,
2013-01-25 09:59:00,42.6,38.4,29.74,NNW,338,1.4,0.0,85,0.00,CLR,,0.00,WeatherDisplay:10.37,2013-01-25 17:59:00,
2013-01-25 10:00:00,42.6,38.7,29.74,NNW,329,1.0,3.0,86,0.00,CLR,CLR,0.00,WeatherDisplay:10.37,2013-01-25 18:00:00,
2013-01-25 10:05:00,42.6,38.4,29.75,NNW,342,1.0,2.0,85,0.00,CLR,CLR,0.00,WeatherDisplay:10.37,2013-01-25 18:05:00,
2013-01-25 10:10:00,42.8,38.3,29.75,SW,225,0.9,1.1,84,0.00,CLR,,0.00,WeatherDisplay:10.37,2013-01-25 18:10:00,
2013-01-25 10:11:00,42.8,38.3,29.75,SW,225,0.9,0.0,84,0.00,CLR,,0.00,WeatherDisplay:10.37,2013-01-25 18:11:00,
2013-01-25 10:15:00,43.0,38.5,29.75,East,90,0.3,0.0,84,0.00,CLR,,0.00,WeatherDisplay:10.37,2013-01-25 18:15:00,
2013-01-25 10:16:00,43.0,38.2,29.75,West,270,0.3,0.0,83,0.00,CLR,,0.00,WeatherDisplay:10.37,2013-01-25 18:16:00,
2013-01-25 10:20:00,43.0,38.2,29.75,ENE,68,0.3,3.5,83,0.00,CLR,,0.00,WeatherDisplay:10.37,2013-01-25 18:20:00,
2013-01-25 10:21:00,43.0,38.2,29.75,ENE,68,0.3,3.5,83,0.00,CLR,,0.00,WeatherDisplay:10.37,2013-01-25 18:21:00,
2013-01-25 10:25:00,43.0,38.2,29.74,NNE,22,0.8,4.6,83,0.00,CLR,,0.00,WeatherDisplay:10.37,2013-01-25 18:25:00,
2013-01-25 10:26:00,43.0,38.5,29.74,SE,135,1.0,4.6,84,0.00,CLR,,0.00,WeatherDisplay:10.37,2013-01-25 18:26:00,
2013-01-25 10:30:00,43.0,38.5,29.74,SE,135,1.7,3.5,84,0.00,CLR,,0.00,WeatherDisplay:10.37,2013-01-25 18:30:00,
2013-01-25 10:31:00,43.0,38.5,29.74,SE,135,1.7,3.5,84,0.00,CLR,,0.00,WeatherDisplay:10.37,2013-01-25 18:31:00,
2013-01-25 10:35:00,33.8,32.5,29.60,WSW,250,0.0,0.0,95,0.00,CLR,CLR,0.00,WeatherDisplay:10.37,2013-01-25 18:35:00,
2013-01-25 10:36:00,43.0,38.8,29.74,SSW,202,2.4,4.6,85,0.00,CLR,,0.00,WeatherDisplay:10.37,2013-01-25 18:36:00,
2013-01-25 10:40:00,34.2,33.1,29.60,WNW,292,0.0,0.0,96,0.00,CLR,CLR,0.00,WeatherDisplay:10.37,2013-01-25 18:40:00,
2013-01-25 10:41:00,43.2,39.3,29.74,West,270,3.2,4.6,86,0.00,CLR,,0.00,WeatherDisplay:10.37,2013-01-25 18:41:00,
2013-01-25 10:42:00,43.2,39.0,29.74,ESE,112,3.5,6.0,85,0.00,CLR,,0.00,WeatherDisplay:10.37,2013-01-25 18:42:00,
2013-01-25 10:45:00,33.8,33.0,29.59,NW,306,0.0,0.0,97,0.00,CLR,CLR,0.00,WeatherDisplay:10.37,2013-01-25 18:45:00,
2013-01-25 10:46:00,43.3,39.1,29.73,ENE,68,3.5,4.6,85,0.00,CLR,,0.00,WeatherDisplay:10.37,2013-01-25 18:46:00,
2013-01-25 10:47:00,43.3,39.1,29.73,ENE,68,3.5,4.6,85,0.00,CLR,,0.00,WeatherDisplay:10.37,2013-01-25 18:47:00,
2013-01-25 10:50:00,33.8,33.0,29.59,NW,310,0.0,0.0,97,0.00,CLR,CLR,0.00,WeatherDisplay:10.37,2013-01-25 18:50:00,
2013-01-25 10:51:00,43.5,39.3,29.73,SE,135,3.6,3.6,85,0.00,CLR,,0.00,WeatherDisplay:10.37,2013-01-25 18:51:00,
2013-01-25 10:52:00,43.7,39.5,29.73,SE,135,3.6,3.6,85,0.00,CLR,,0.00,WeatherDisplay:10.37,2013-01-25 18:52:00,
2013-01-25 10:55:00,33.8,33.0,29.59,South,178,0.0,0.0,97,0.00,CLR,CLR,0.00,WeatherDisplay:10.37,2013-01-25 18:55:00,
2013-01-25 10:56:00,43.9,39.7,29.73,ENE,68,3.6,9.2,85,0.00,CLR,,0.00,WeatherDisplay:10.37,2013-01-25 18:56:00,
2013-01-25 10:57:00,43.9,39.7,29.73,ENE,68,3.6,9.2,85,0.00,CLR,,0.00,WeatherDisplay:10.37,2013-01-25 18:57:00,
2013-01-25 11:00:00,33.6,32.9,29.59,South,176,0.0,0.0,97,0.00,CLR,CLR,0.00,WeatherDisplay:10.37,2013-01-25 19:00:00,
2013-01-25 11:01:00,44.2,39.7,29.73,NNE,22,3.3,4.6,84,0.00,CLR,,0.00,WeatherDisplay:10.37,2013-01-25 19:01:00,
2013-01-25 11:02:00,44.4,39.9,29.73,NNE,22,3.3,5.1,84,0.00,CLR,,0.00,WeatherDisplay:10.37,2013-01-25 19:02:00,
2013-01-25 11:05:00,33.4,32.7,29.59,West,280,0.0,0.0,97,0.00,CLR,CLR,0.00,WeatherDisplay:10.37,2013-01-25 19:05:00,
2013-01-25 11:06:00,44.6,39.4,29.72,SE,135,3.1,6.9,82,0.00,CLR,,0.00,WeatherDisplay:10.37,2013-01-25 19:06:00,
2013-01-25 11:07:00,44.6,39.4,29.72,SE,135,3.1,6.9,82,0.00,CLR,,0.00,WeatherDisplay:10.37,2013-01-25 19:07:00,
2013-01-25 11:08:00,44.6,39.4,29.72,ENE,68,3.1,4.6,82,0.00,CLR,,0.00,WeatherDisplay:10.37,2013-01-25 19:08:00,
2013-01-25 11:10:00,33.1,32.3,29.59,WNW,297,0.0,0.0,97,0.00,CLR,CLR,0.00,WeatherDisplay:10.37,2013-01-25 19:10:00,
2013-01-25 11:11:00,44.6,39.1,29.72,SE,135,3.2,4.6,81,0.00,CLR,,0.00,WeatherDisplay:10.37,2013-01-25 19:11:00,
2013-01-25 11:12:00,44.6,39.1,29.72,SE,135,3.2,4.6,81,0.00,CLR,,0.00,WeatherDisplay:10.37,2013-01-25 19:12:00,
2013-01-25 11:13:00,44.6,39.1,29.72,SE,135,3.2,3.5,81,0.00,CLR,,0.00,WeatherDisplay:10.37,2013-01-25 19:13:00,
2013-01-25 11:15:00,32.9,31.9,29.59,NW,314,0.0,0.0,96,0.00,CLR,CLR,0.00,WeatherDisplay:10.37,2013-01-25 19:15:00,
2013-01-25 11:16:00,44.6,39.1,29.72,South,180,3.0,4.6,81,0.00,CLR,,0.00,WeatherDisplay:10.37,2013-01-25 19:16:00,
2013-01-25 11:17:00,44.6,39.1,29.72,South,180,3.0,4.9,81,0.00,CLR,,0.00,WeatherDisplay:10.37,2013-01-25 19:17:00,
2013-01-25 11:18:00,44.6,38.8,29.72,East,90,3.0,4.6,80,0.00,CLR,,0.00,WeatherDisplay:10.37,2013-01-25 19:18:00,
2013-01-25 11:21:00,44.8,39.0,29.72,NNE,22,2.6,7.2,80,0.00,CLR,,0.00,WeatherDisplay:10.37,2013-01-25 19:21:00,
2013-01-25 11:22:00,44.8,39.0,29.72,NNE,22,2.6,7.2,80,0.00,CLR,,0.00,WeatherDisplay:10.37,2013-01-25 19:22:00,
2013-01-25 11:23:00,45.0,39.2,29.72,South,180,2.8,6.9,80,0.00,CLR,,0.00,WeatherDisplay:10.37,2013-01-25 19:23:00,
2013-01-25 11:25:00,32.5,31.5,29.59,West,271,0.0,1.0,96,0.00,CLR,CLR,0.00,WeatherDisplay:10.37,2013-01-25 19:25:00,
2013-01-25 11:27:00,45.0,39.2,29.72,SE,135,3.0,4.6,80,0.00,CLR,,0.00,WeatherDisplay:10.37,2013-01-25 19:27:00,
2013-01-25 11:28:00,45.0,39.2,29.72,NNE,22,3.3,7.9,80,0.00,CLR,,0.00,WeatherDisplay:10.37,2013-01-25 19:28:00,
2013-01-25 11:30:00,32.4,31.3,29.59,WSW,240,0.0,1.0,96,0.00,CLR,CLR,0.00,WeatherDisplay:10.37,2013-01-25 19:30:00,
2013-01-25 11:32:00,45.0,39.2,29.72,ESE,112,4.0,9.2,80,0.00,CLR,,0.00,WeatherDisplay:10.37,2013-01-25 19:32:00,
2013-01-25 11:33:00,45.0,39.2,29.72,ESE,112,4.0,8.1,80,0.00,CLR,,0.00,WeatherDisplay:10.37,2013-01-25 19:33:00,
2013-01-25 11:35:00,32.2,30.9,29.59,NW,306,0.0,0.0,95,0.00,CLR,CLR,0.00,WeatherDisplay:10.37,2013-01-25 19:35:00,
2013-01-25 11:37:00,44.8,39.0,29.72,SE,135,4.5,5.8,80,0.00,CLR,,0.00,WeatherDisplay:10.37,2013-01-25 19:37:00,
2013-01-25 11:39:00,44.8,39.0,29.72,South,180,4.4,5.8,80,0.00,CLR,,0.00,WeatherDisplay:10.37,2013-01-25 19:39:00,
2013-01-25 11:42:00,45.0,39.2,29.72,ENE,68,3.9,3.9,80,0.00,CLR,,0.00,WeatherDisplay:10.37,2013-01-25 19:42:00,
2013-01-25 11:44:00,45.1,39.3,29.72,ESE,112,3.5,4.6,80,0.00,CLR,,0.00,WeatherDisplay:10.37,2013-01-25 19:44:00,
2013-01-25 11:45:00,32.5,30.7,29.59,NNW,339,1.0,8.0,93,0.00,CLR,CLR,0.00,WeatherDisplay:10.37,2013-01-25 19:45:00,
2013-01-25 11:47:00,45.1,39.3,29.72,NNW,338,3.6,6.9,80,0.00,CLR,,0.00,WeatherDisplay:10.37,2013-01-25 19:47:00,
2013-01-25 11:48:00,45.1,39.3,29.72,NNW,338,3.6,6.9,80,0.00,CLR,,0.00,WeatherDisplay:10.37,2013-01-25 19:48:00,
2013-01-25 11:49:00,45.1,39.3,29.72,NNW,338,3.6,4.6,80,0.00,CLR,,0.00,WeatherDisplay:10.37,2013-01-25 19:49:00,
2013-01-25 11:53:00,45.1,39.0,29.72,SSE,158,3.6,4.6,79,0.00,CLR,,0.00,WeatherDisplay:10.37,2013-01-25 19:53:00,
2013-01-25 11:54:00,45.0,38.8,29.72,ESE,112,3.8,4.9,79,0.00,CLR,,0.00,WeatherDisplay:10.37,2013-01-25 19:54:00,
2013-01-25 11:55:00,33.6,27.8,29.59,SE,127,3.0,7.0,79,0.00,CLR,CLR,0.00,WeatherDisplay:10.37,2013-01-25 19:55:00,
2013-01-25 11:58:00,45.0,38.8,29.72,SSE,158,3.6,5.8,79,0.00,CLR,,0.00,WeatherDisplay:10.37,2013-01-25 19:58:00,
2013-01-25 11:59:00,45.0,38.8,29.72,SSE,158,3.6,5.8,79,0.00,CLR,,0.00,WeatherDisplay:10.37,2013-01-25 19:59:00,
2013-01-25 12:00:00,33.8,26.7,29.59,SSE,149,3.0,7.0,75,0.00,CLR,CLR,0.00,WeatherDisplay:10.37,2013-01-25 20:00:00,
2013-01-25 12:03:00,45.0,38.8,29.72,East,90,3.8,5.8,79,0.00,CLR,,0.00,WeatherDisplay:10.37,2013-01-25 20:03:00,
2013-01-25 12:04:00,44.8,38.7,29.71,NNW,338,4.1,8.1,79,0.00,CLR,,0.00,WeatherDisplay:10.37,2013-01-25 20:04:00,
2013-01-25 12:05:00,44.8,38.7,29.71,NNW,338,4.1,8.1,79,0.00,CLR,,0.00,WeatherDisplay:10.37,2013-01-25 20:05:00,
2013-01-25 12:08:00,44.8,38.7,29.71,NNW,338,4.1,8.1,79,0.00,CLR,,0.00,WeatherDisplay:10.37,2013-01-25 20:08:00,
2013-01-25 12:09:00,44.8,38.7,29.71,NNW,338,4.1,8.1,79,0.00,CLR,,0.00,WeatherDisplay:10.37,2013-01-25 20:09:00,
2013-01-25 12:10:00,44.8,38.7,29.71,NNW,338,4.1,8.1,79,0.00,CLR,,0.00,WeatherDisplay:10.37,2013-01-25 20:10:00,
2013-01-25 12:13:00,44.8,38.7,29.71,NNW,338,4.1,8.1,79,0.00,CLR,,0.00,WeatherDisplay:10.37,2013-01-25 20:13:00,
2013-01-25 12:14:00,44.8,38.7,29.71,NNW,338,4.1,8.1,79,0.00,CLR,,0.00,WeatherDisplay:10.37,2013-01-25 20:14:00,
2013-01-25 12:15:00,44.8,39.0,29.71,East,90,4.1,8.1,80,0.00,CLR,,0.00,WeatherDisplay:10.37,2013-01-25 20:15:00,
2013-01-25 12:18:00,44.8,39.0,29.71,South,180,3.9,5.8,80,0.00,CLR,,0.00,WeatherDisplay:10.37,2013-01-25 20:18:00,
2013-01-25 12:19:00,44.8,39.0,29.71,South,180,3.9,3.9,80,0.00,CLR,,0.00,WeatherDisplay:10.37,2013-01-25 20:19:00,
2013-01-25 12:20:00,44.8,39.0,29.71,ESE,112,4.1,4.1,80,0.00,CLR,,0.00,WeatherDisplay:10.37,2013-01-25 20:20:00,
2013-01-25 12:23:00,44.8,39.0,29.71,WSW,248,3.7,5.8,80,0.00,CLR,,0.00,WeatherDisplay:10.37,2013-01-25 20:23:00,
2013-01-25 12:24:00,44.8,39.0,29.71,WSW,248,3.7,5.8,80,0.00,CLR,,0.00,WeatherDisplay:10.37,2013-01-25 20:24:00,
2013-01-25 12:26:00,44.8,39.0,29.71,ESE,112,3.7,9.2,80,0.00,CLR,,0.00,WeatherDisplay:10.37,2013-01-25 20:26:00,
2013-01-25 12:28:00,44.6,38.8,29.71,SE,135,3.9,9.2,80,0.00,CLR,,0.00,WeatherDisplay:10.37,2013-01-25 20:28:00,
2013-01-25 12:29:00,44.6,38.8,29.71,SE,135,3.9,3.9,80,0.00,CLR,,0.00,WeatherDisplay:10.37,2013-01-25 20:29:00,
2013-01-25 12:30:00,32.9,25.8,29.58,East,88,1.0,2.0,75,0.00,CLR,CLR,0.00,WeatherDisplay:10.37,2013-01-25 20:30:00,
2013-01-25 12:32:00,44.6,38.8,29.71,SE,135,4.3,5.8,80,0.00,CLR,,0.00,WeatherDisplay:10.37,2013-01-25 20:32:00,
2013-01-25 12:34:00,44.6,38.8,29.71,ESE,112,4.3,5.8,80,0.00,CLR,,0.00,WeatherDisplay:10.37,2013-01-25 20:34:00,
2013-01-25 12:35:00,44.6,38.8,29.71,ESE,112,4.3,5.8,80,0.00,CLR,,0.00,WeatherDisplay:10.37,2013-01-25 20:35:00,
2013-01-25 12:37:00,44.8,39.0,29.71,SE,135,4.1,5.8,80,0.00,CLR,,0.00,WeatherDisplay:10.37,2013-01-25 20:37:00,
2013-01-25 12:39:00,44.8,39.0,29.71,SSW,202,3.7,3.7,80,0.00,CLR,,0.00,WeatherDisplay:10.37,2013-01-25 20:39:00,
2013-01-25 12:40:00,44.8,39.0,29.71,South,180,3.5,3.5,80,0.00,CLR,,0.00,WeatherDisplay:10.37,2013-01-25 20:40:00,
2013-01-25 12:42:00,44.8,39.0,29.71,South,180,3.0,3.8,80,0.00,CLR,,0.00,WeatherDisplay:10.37,2013-01-25 20:42:00,
2013-01-25 12:44:00,45.0,39.2,29.69,SE,135,2.9,3.9,80,0.00,CLR,,0.00,WeatherDisplay:10.37,2013-01-25 20:44:00,
2013-01-25 12:45:00,45.0,39.2,29.69,SE,135,2.9,3.9,80,0.00,CLR,,0.00,WeatherDisplay:10.37,2013-01-25 20:45:00,
2013-01-25 12:47:00,45.0,39.2,29.69,WSW,248,3.0,3.5,80,0.00,CLR,,0.00,WeatherDisplay:10.37,2013-01-25 20:47:00,
2013-01-25 12:49:00,45.1,39.0,29.69,NNE,22,3.3,6.9,79,0.00,CLR,,0.00,WeatherDisplay:10.37,2013-01-25 20:49:00,
2013-01-25 12:50:00,45.1,39.0,29.69,NNE,22,3.3,6.9,79,0.00,CLR,,0.00,WeatherDisplay:10.37,2013-01-25 20:50:00,
2013-01-25 12:52:00,45.1,38.7,29.69,SSE,158,3.5,4.6,78,0.00,CLR,,0.00,WeatherDisplay:10.37,2013-01-25 20:52:00,
2013-01-25 12:54:00,45.1,38.4,29.69,SSE,158,3.7,4.6,77,0.00,CLR,,0.00,WeatherDisplay:10.37,2013-01-25 20:54:00,
2013-01-25 12:55:00,45.1,38.4,29.69,SSE,158,3.7,3.7,77,0.00,CLR,,0.00,WeatherDisplay:10.37,2013-01-25 20:55:00,
2013-01-25 12:57:00,45.1,38.4,29.69,NNW,338,3.7,4.6,77,0.00,CLR,,0.00,WeatherDisplay:10.37,2013-01-25 20:57:00,
2013-01-25 12:59:00,45.1,38.0,29.69,NNW,338,3.6,6.9,76,0.00,CLR,,0.00,WeatherDisplay:10.37,2013-01-25 20:59:00,
2013-01-25 13:00:00,45.1,38.0,29.69,NNW,338,3.6,6.9,76,0.00,CLR,,0.00,WeatherDisplay:10.37,2013-01-25 21:00:00,
2013-01-25 13:02:00,45.3,38.2,29.69,South,180,3.6,5.8,76,0.00,CLR,,0.00,WeatherDisplay:10.37,2013-01-25 21:02:00,
2013-01-25 13:05:00,45.5,38.4,29.69,ENE,68,3.7,4.6,76,0.00,CLR,,0.00,WeatherDisplay:10.37,2013-01-25 21:05:00,
2013-01-25 13:07:00,45.7,38.2,29.69,West,270,3.7,3.7,75,0.00,CLR,,0.00,WeatherDisplay:10.37,2013-01-25 21:07:00,
2013-01-25 13:10:00,45.9,38.7,29.69,SSE,158,3.5,3.5,76,0.00,CLR,,0.00,WeatherDisplay:10.37,2013-01-25 21:10:00,
2013-01-25 13:12:00,45.9,38.4,29.69,SSE,158,3.5,5.8,75,0.00,CLR,,0.00,WeatherDisplay:10.37,2013-01-25 21:12:00,
2013-01-25 13:15:00,45.9,38.4,29.69,NW,315,3.5,3.5,75,0.00,CLR,,0.00,WeatherDisplay:10.37,2013-01-25 21:15:00,
2013-01-25 13:18:00,46.2,38.7,29.69,NNE,22,2.9,3.5,75,0.00,CLR,,0.00,WeatherDisplay:10.37,2013-01-25 21:18:00,
2013-01-25 13:20:00,46.2,38.4,29.69,NW,315,3.0,3.0,74,0.00,CLR,,0.00,WeatherDisplay:10.37,2013-01-25 21:20:00,
2013-01-25 13:21:00,46.2,38.4,29.69,NW,315,3.0,3.0,74,0.00,CLR,,0.00,WeatherDisplay:10.37,2013-01-25 21:21:00,
2013-01-25 13:23:00,46.2,38.4,29.69,ESE,112,3.1,4.6,74,0.00,CLR,,0.00,WeatherDisplay:10.37,2013-01-25 21:23:00,
2013-01-25 13:25:00,46.2,38.4,29.68,SW,225,3.0,3.0,74,0.00,CLR,,0.00,WeatherDisplay:10.37,2013-01-25 21:25:00,
2013-01-25 13:26:00,46.2,38.4,29.68,SW,225,3.0,3.0,74,0.00,CLR,,0.00,WeatherDisplay:10.37,2013-01-25 21:26:00,
2013-01-25 13:28:00,46.6,38.7,29.68,SW,225,3.0,3.0,74,0.00,CLR,,0.00,WeatherDisplay:10.37,2013-01-25 21:28:00,
2013-01-25 13:30:00,31.6,21.9,29.59,ENE,59,2.0,3.0,67,0.00,CLR,CLR,0.00,WeatherDisplay:10.37,2013-01-25 21:30:00,
2013-01-25 13:31:00,46.6,38.4,29.68,NE,45,2.6,4.6,73,0.00,CLR,,0.00,WeatherDisplay:10.37,2013-01-25 21:31:00,
2013-01-25 13:33:00,46.8,38.6,29.68,SSE,158,2.3,3.5,73,0.00,CLR,,0.00,WeatherDisplay:10.37,2013-01-25 21:33:00,
2013-01-25 13:35:00,31.3,21.6,29.59,ENE,70,2.0,4.0,67,0.00,CLR,CLR,0.00,WeatherDisplay:10.37,2013-01-25 21:35:00,
2013-01-25 13:36:00,46.6,38.0,29.68,NE,45,2.5,5.8,72,0.00,CLR,,0.00,WeatherDisplay:10.37,2013-01-25 21:36:00,
2013-01-25 13:37:00,46.6,38.0,29.68,NE,45,2.5,5.8,72,0.00,CLR,,0.00,WeatherDisplay:10.37,2013-01-25 21:37:00,
2013-01-25 13:39:00,46.8,38.2,29.68,SE,135,2.6,5.8,72,0.00,CLR,,0.00,WeatherDisplay:10.37,2013-01-25 21:39:00,
2013-01-25 13:40:00,31.1,21.8,29.59,South,170,2.0,4.0,68,0.00,CLR,CLR,0.00,WeatherDisplay:10.37,2013-01-25 21:40:00,
2013-01-25 13:41:00,46.9,38.4,29.68,North,0,2.9,2.9,72,0.00,CLR,,0.00,WeatherDisplay:10.37,2013-01-25 21:41:00,
2013-01-25 13:42:00,46.9,38.4,29.68,SSE,158,2.8,2.8,72,0.00,CLR,,0.00,WeatherDisplay:10.37,2013-01-25 21:42:00,
2013-01-25 13:44:00,47.1,38.6,29.67,NE,45,2.8,2.8,72,0.00,CLR,,0.00,WeatherDisplay:10.37,2013-01-25 21:44:00,
2013-01-25 13:45:00,31.3,21.9,29.58,WNW,294,2.0,3.0,68,0.00,CLR,CLR,0.00,WeatherDisplay:10.37,2013-01-25 21:45:00,
2013-01-25 13:46:00,47.1,37.8,29.67,SE,135,2.8,3.5,70,0.00,CLR,,0.00,WeatherDisplay:10.37,2013-01-25 21:46:00,
2013-01-25 13:47:00,47.1,37.8,29.67,SE,135,2.8,3.5,70,0.00,CLR,,0.00,WeatherDisplay:10.37,2013-01-25 21:47:00,
2013-01-25 13:49:00,46.8,37.9,29.67,ESE,112,3.0,3.7,71,0.00,CLR,,0.00,WeatherDisplay:10.37,2013-01-25 21:49:00,
2013-01-25 13:50:00,31.5,21.8,29.58,South,191,2.0,7.0,67,0.00,CLR,CLR,0.00,WeatherDisplay:10.37,2013-01-25 21:50:00,
2013-01-25 13:51:00,46.8,37.5,29.67,NW,315,2.9,4.6,70,0.00,CLR,,0.00,WeatherDisplay:10.37,2013-01-25 21:51:00,
2013-01-25 13:52:00,46.8,37.9,29.67,NE,45,3.1,4.6,71,0.00,CLR,,0.00,WeatherDisplay:10.37,2013-01-25 21:52:00,
2013-01-25 13:54:00,46.9,37.7,29.67,WNW,292,3.1,3.1,70,0.00,CLR,,0.00,WeatherDisplay:10.37,2013-01-25 21:54:00,
2013-01-25 13:55:00,31.5,21.8,29.58,SSE,149,2.0,7.0,67,0.00,CLR,CLR,0.00,WeatherDisplay:10.37,2013-01-25 21:55:00,
2013-01-25 13:56:00,46.9,37.7,29.67,ENE,68,2.9,4.6,70,0.00,CLR,,0.00,WeatherDisplay:10.37,2013-01-25 21:56:00,
2013-01-25 13:57:00,46.9,37.7,29.67,ENE,68,2.9,4.6,70,0.00,CLR,,0.00,WeatherDisplay:10.37,2013-01-25 21:57:00,
2013-01-25 13:59:00,46.9,37.7,29.67,ENE,68,2.9,3.5,70,0.00,CLR,,0.00,WeatherDisplay:10.37,2013-01-25 21:59:00,
2013-01-25 14:00:00,31.1,21.4,29.58,ESE,113,2.0,2.0,67,0.00,CLR,CLR,0.00,WeatherDisplay:10.37,2013-01-25 22:00:00,
2013-01-25 14:01:00,46.9,37.7,29.67,NW,315,2.6,3.5,70,0.00,CLR,,0.00,WeatherDisplay:10.37,2013-01-25 22:01:00,
2013-01-25 14:02:00,46.9,37.7,29.67,NW,315,2.6,3.5,70,0.00,CLR,,0.00,WeatherDisplay:10.37,2013-01-25 22:02:00,
2013-01-25 14:04:00,46.9,37.7,29.67,ESE,112,2.6,2.6,70,0.00,CLR,,0.00,WeatherDisplay:10.37,2013-01-25 22:04:00,
2013-01-25 14:05:00,31.1,21.1,29.59,North,9,1.0,3.0,66,0.00,CLR,CLR,0.00,WeatherDisplay:10.37,2013-01-25 22:05:00,
2013-01-25 14:07:00,46.9,37.7,29.67,South,180,2.8,4.6,70,0.00,CLR,,0.00,WeatherDisplay:10.37,2013-01-25 22:07:00,
2013-01-25 14:09:00,46.6,37.3,29.67,SE,135,3.0,6.9,70,0.00,CLR,,0.00,WeatherDisplay:10.37,2013-01-25 22:09:00,
2013-01-25 14:10:00,31.1,21.1,29.59,NNW,330,2.0,5.0,66,0.00,CLR,CLR,0.00,WeatherDisplay:10.37,2013-01-25 22:10:00,
2013-01-25 14:12:00,46.6,37.3,29.67,West,270,3.0,6.9,70,0.00,CLR,,0.00,WeatherDisplay:10.37,2013-01-25 22:12:00,
2013-01-25 14:13:00,46.6,37.3,29.67,West,270,3.0,6.9,70,0.00,CLR,,0.00,WeatherDisplay:10.37,2013-01-25 22:13:00,
2013-01-25 14:14:00,46.4,37.1,29.67,North,0,2.9,2.9,70,0.00,CLR,,0.00,WeatherDisplay:10.37,2013-01-25 22:14:00,
2013-01-25 14:15:00,31.3,20.9,29.59,West,264,2.0,5.0,65,0.00,CLR,CLR,0.00,WeatherDisplay:10.37,2013-01-25 22:15:00,
2013-01-25 14:17:00,46.2,37.0,29.67,NW,315,3.0,3.5,70,0.00,CLR,,0.00,WeatherDisplay:10.37,2013-01-25 22:17:00,
2013-01-25 14:18:00,46.2,37.0,29.67,NW,315,3.0,3.5,70,0.00,CLR,,0.00,WeatherDisplay:10.37,2013-01-25 22:18:00,
2013-01-25 14:19:00,46.4,37.1,29.67,West,270,2.6,2.6,70,0.00,CLR,,0.00,WeatherDisplay:10.37,2013-01-25 22:19:00,
2013-01-25 14:20:00,31.1,20.7,29.59,NNW,344,2.0,3.0,65,0.00,CLR,CLR,0.00,WeatherDisplay:10.37,2013-01-25 22:20:00,
2013-01-25 14:22:00,46.4,37.1,29.67,NNE,22,2.6,8.2,70,0.00,CLR,,0.00,WeatherDisplay:10.37,2013-01-25 22:22:00,
2013-01-25 14:23:00,46.4,37.1,29.67,NNE,22,2.6,8.2,70,0.00,CLR,,0.00,WeatherDisplay:10.37,2013-01-25 22:23:00,
2013-01-25 14:24:00,46.4,37.1,29.67,East,90,2.6,8.1,70,0.00,CLR,,0.00,WeatherDisplay:10.37,2013-01-25 22:24:00,
2013-01-25 14:25:00,31.1,20.3,29.59,North,7,2.0,5.0,64,0.00,CLR,CLR,0.00,WeatherDisplay:10.37,2013-01-25 22:25:00,
2013-01-25 14:27:00,46.4,37.1,29.67,SW,225,2.6,4.6,70,0.00,CLR,,0.00,WeatherDisplay:10.37,2013-01-25 22:27:00,
2013-01-25 14:28:00,46.4,37.1,29.67,SW,225,2.6,4.6,70,0.00,CLR,,0.00,WeatherDisplay:10.37,2013-01-25 22:28:00,
2013-01-25 14:29:00,46.4,37.1,29.67,SE,135,2.5,5.2,70,0.00,CLR,,0.00,WeatherDisplay:10.37,2013-01-25 22:29:00,
2013-01-25 14:30:00,30.9,20.5,29.59,SW,220,2.0,5.0,65,0.00,CLR,CLR,0.00,WeatherDisplay:10.37,2013-01-25 22:30:00,
2013-01-25 14:33:00,46.4,37.1,29.67,SE,135,2.5,4.6,70,0.00,CLR,,0.00,WeatherDisplay:10.37,2013-01-25 22:33:00,
2013-01-25 14:35:00,46.4,37.1,29.67,SE,135,2.5,4.6,70,0.00,CLR,,0.00,WeatherDisplay:10.37,2013-01-25 22:35:00,
2013-01-25 14:38:00,46.6,37.3,29.67,SE,135,2.5,5.2,70,0.00,CLR,,0.00,WeatherDisplay:10.37,2013-01-25 22:38:00,
2013-01-25 14:40:00,46.8,37.5,29.67,NNW,338,2.5,4.6,70,0.00,CLR,,0.00,WeatherDisplay:10.37,2013-01-25 22:40:00,
2013-01-25 14:43:00,46.9,37.7,29.67,East,90,2.5,2.5,70,0.00,CLR,,0.00,WeatherDisplay:10.37,2013-01-25 22:43:00,
2013-01-25 14:45:00,46.9,37.7,29.66,East,90,2.5,2.5,70,0.00,CLR,,0.00,WeatherDisplay:10.37,2013-01-25 22:45:00,
2013-01-25 14:48:00,46.8,37.1,29.66,East,90,2.5,2.5,69,0.00,CLR,,0.00,WeatherDisplay:10.37,2013-01-25 22:48:00,
2013-01-25 14:50:00,46.6,37.0,29.66,East,90,2.5,2.5,69,0.00,CLR,,0.00,WeatherDisplay:10.37,2013-01-25 22:50:00,
2013-01-25 14:53:00,46.2,36.6,29.66,North,0,2.2,3.9,69,0.00,CLR,,0.00,WeatherDisplay:10.37,2013-01-25 22:53:00,
2013-01-25 14:55:00,29.5,19.9,29.58,South,178,1.0,1.0,67,0.00,CLR,CLR,0.00,WeatherDisplay:10.37,2013-01-25 22:55:00,
2013-01-25 14:56:00,46.2,37.0,29.66,NW,315,2.3,2.3,70,0.00,CLR,,0.00,WeatherDisplay:10.37,2013-01-25 22:56:00,
2013-01-25 14:58:00,46.2,36.6,29.66,NE,45,2.2,0.0,69,0.00,CLR,,0.00,WeatherDisplay:10.37,2013-01-25 22:58:00,
2013-01-25 15:00:00,29.5,20.2,29.58,SSW,196,1.0,2.0,68,0.00,CLR,CLR,0.00,WeatherDisplay:10.37,2013-01-25 23:00:00,
2013-01-25 15:01:00,46.2,36.6,29.66,NE,45,2.6,5.8,69,0.00,CLR,,0.00,WeatherDisplay:10.37,2013-01-25 23:01:00,
2013-01-25 15:03:00,46.0,36.4,29.66,NE,45,2.6,5.8,69,0.00,CLR,,0.00,WeatherDisplay:10.37,2013-01-25 23:03:00,
2013-01-25 15:04:00,46.0,36.8,29.66,West,270,2.2,5.8,70,0.00,CLR,,0.00,WeatherDisplay:10.37,2013-01-25 23:04:00,
2013-01-25 15:05:00,29.5,20.2,29.58,South,187,1.0,2.0,68,0.00,CLR,CLR,0.00,WeatherDisplay:10.37,2013-01-25 23:05:00,
2013-01-25 15:06:00,46.0,36.8,29.66,East,90,2.3,4.6,70,0.00,CLR,,0.00,WeatherDisplay:10.37,2013-01-25 23:06:00,
2013-01-25 15:08:00,46.0,36.8,29.66,NE,45,2.4,4.6,70,0.00,CLR,,0.00,WeatherDisplay:10.37,2013-01-25 23:08:00,
2013-01-25 15:09:00,46.0,36.8,29.66,NE,45,2.4,2.4,70,0.00,CLR,,0.00,WeatherDisplay:10.37,2013-01-25 23:09:00,
2013-01-25 15:10:00,29.5,20.2,29.58,SE,134,1.0,2.0,68,0.00,CLR,CLR,0.00,WeatherDisplay:10.37,2013-01-25 23:10:00,
2013-01-25 15:11:00,45.9,36.6,29.66,SSE,158,2.4,5.8,70,0.00,CLR,,0.00,WeatherDisplay:10.37,2013-01-25 23:11:00,
2013-01-25 15:13:00,45.9,36.6,29.66,ENE,68,2.5,2.5,70,0.00,CLR,,0.00,WeatherDisplay:10.37,2013-01-25 23:13:00,
2013-01-25 15:14:00,45.9,36.6,29.66,NNW,338,2.3,3.5,70,0.00,CLR,,0.00,WeatherDisplay:10.37,2013-01-25 23:14:00,
2013-01-25 15:15:00,29.7,20.4,29.58,East,101,1.0,2.0,68,0.00,CLR,CLR,0.00,WeatherDisplay:10.37,2013-01-25 23:15:00,
2013-01-25 15:16:00,45.7,36.5,29.66,WNW,292,2.5,3.5,70,0.00,CLR,,0.00,WeatherDisplay:10.37,2013-01-25 23:16:00,
2013-01-25 15:19:00,45.5,36.3,29.66,East,90,2.3,2.3,70,0.00,CLR,,0.00,WeatherDisplay:10.37,2013-01-25 23:19:00,
2013-01-25 15:20:00,29.7,20.4,29.58,ENE,64,1.0,3.0,68,0.00,CLR,CLR,0.00,WeatherDisplay:10.37,2013-01-25 23:20:00,
2013-01-25 15:22:00,45.5,36.3,29.66,NE,45,1.5,0.0,70,0.00,CLR,,0.00,WeatherDisplay:10.37,2013-01-25 23:22:00,
2013-01-25 15:24:00,45.3,36.1,29.66,NNE,22,1.8,2.6,70,0.00,CLR,,0.00,WeatherDisplay:10.37,2013-01-25 23:24:00,
2013-01-25 15:25:00,29.8,20.2,29.58,ENE,64,2.0,3.0,67,0.00,CLR,CLR,0.00,WeatherDisplay:10.37,2013-01-25 23:25:00,
2013-01-25 15:27:00,45.3,36.1,29.66,WSW,248,1.5,2.3,70,0.00,CLR,,0.00,WeatherDisplay:10.37,2013-01-25 23:27:00,
2013-01-25 15:29:00,45.3,36.1,29.66,NNE,22,1.4,3.9,70,0.00,CLR,,0.00,WeatherDisplay:10.37,2013-01-25 23:29:00,
2013-01-25 15:30:00,29.8,20.2,29.58,ESE,107,2.0,3.0,67,0.00,CLR,CLR,0.00,WeatherDisplay:10.37,2013-01-25 23:30:00,
2013-01-25 15:32:00,45.3,36.1,29.66,South,180,1.3,2.3,70,0.00,CLR,,0.00,WeatherDisplay:10.37,2013-01-25 23:32:00,
2013-01-25 15:34:00,45.3,36.1,29.66,WNW,292,1.4,2.3,70,0.00,CLR,,0.00,WeatherDisplay:10.37,2013-01-25 23:34:00,
2013-01-25 15:35:00,45.3,36.1,29.66,WNW,292,1.4,2.5,70,0.00,CLR,,0.00,WeatherDisplay:10.37,2013-01-25 23:35:00,
2013-01-25 15:37:00,45.3,36.1,29.66,NE,45,1.1,1.1,70,0.00,CLR,,0.00,WeatherDisplay:10.37,2013-01-25 23:37:00,
2013-01-25 15:39:00,45.5,36.3,29.66,NNW,338,1.3,4.6,70,0.00,CLR,,0.00,WeatherDisplay:10.37,2013-01-25 23:39:00,
2013-01-25 15:40:00,45.5,36.3,29.66,NNW,338,1.3,4.6,70,0.00,CLR,,0.00,WeatherDisplay:10.37,2013-01-25 23:40:00,
2013-01-25 15:42:00,45.5,36.3,29.66,ESE,112,1.3,1.3,70,0.00,CLR,,0.00,WeatherDisplay:10.37,2013-01-25 23:42:00,
2013-01-25 15:44:00,45.5,36.3,29.65,SE,135,1.1,1.1,70,0.00,CLR,,0.00,WeatherDisplay:10.37,2013-01-25 23:44:00,
2013-01-25 15:45:00,45.5,36.3,29.65,SE,135,1.1,1.1,70,0.00,CLR,,0.00,WeatherDisplay:10.37,2013-01-25 23:45:00,
2013-01-25 15:47:00,45.5,36.3,29.65,NNW,338,1.0,0.0,70,0.00,CLR,,0.00,WeatherDisplay:10.37,2013-01-25 23:47:00,
2013-01-25 15:50:00,45.3,36.1,29.65,WNW,292,0.8,2.3,70,0.00,CLR,,0.00,WeatherDisplay:10.37,2013-01-25 23:50:00,
2013-01-25 15:52:00,45.1,35.9,29.65,SSE,158,0.7,2.3,70,0.00,CLR,,0.00,WeatherDisplay:10.37,2013-01-25 23:52:00,
2013-01-25 15:55:00,45.1,35.9,29.65,East,90,0.7,1.4,70,0.00,CLR,,0.00,WeatherDisplay:10.37,2013-01-25 23:55:00,
2013-01-25 15:57:00,45.0,35.8,29.65,SE,135,0.7,3.5,70,0.00,CLR,,0.00,WeatherDisplay:10.37,2013-01-25 23:57:00,
2013-01-25 16:00:00,45.0,35.8,29.65,North,0,0.7,3.5,70,0.00,CLR,,0.00,WeatherDisplay:10.37,2013-01-26 00:00:00,
2013-01-25 16:01:00,45.0,35.8,29.65,North,0,0.7,3.5,70,0.00,CLR,,0.00,WeatherDisplay:10.37,2013-01-26 00:01:00,
2013-01-25 16:02:00,45.0,36.1,29.65,NNE,22,1.0,3.5,71,0.00,CLR,,0.00,WeatherDisplay:10.37,2013-01-26 00:02:00,
2013-01-25 16:05:00,44.8,35.9,29.65,ESE,112,1.3,3.5,71,0.00,CLR,,0.00,WeatherDisplay:10.37,2013-01-26 00:05:00,
2013-01-25 16:06:00,44.8,35.9,29.65,SSE,158,1.5,3.5,71,0.00,CLR,,0.00,WeatherDisplay:10.37,2013-01-26 00:06:00,
2013-01-25 16:07:00,44.8,35.9,29.65,SSE,158,1.5,2.3,71,0.00,CLR,,0.00,WeatherDisplay:10.37,2013-01-26 00:07:00,
2013-01-25 16:10:00,44.8,35.9,29.65,SSE,158,1.5,2.3,71,0.00,CLR,,0.00,WeatherDisplay:10.37,2013-01-26 00:10:00,
2013-01-25 16:11:00,44.8,35.9,29.65,SSE,158,1.5,2.3,71,0.00,CLR,,0.00,WeatherDisplay:10.37,2013-01-26 00:11:00,
2013-01-25 16:12:00,44.8,35.9,29.65,SSE,158,1.5,2.3,71,0.00,CLR,,0.00,WeatherDisplay:10.37,2013-01-26 00:12:00,
2013-01-25 16:15:00,44.6,35.8,29.65,NNE,22,1.8,2.3,71,0.00,CLR,,0.00,WeatherDisplay:10.37,2013-01-26 00:15:00,
2013-01-25 16:16:00,44.6,35.8,29.65,NW,315,1.7,2.3,71,0.00,CLR,,0.00,WeatherDisplay:10.37,2013-01-26 00:16:00,
2013-01-25 16:18:00,44.6,36.1,29.65,NNW,338,1.7,2.3,72,0.00,CLR,,0.00,WeatherDisplay:10.37,2013-01-26 00:18:00,
2013-01-25 16:20:00,44.6,36.1,29.65,WSW,248,1.6,2.3,72,0.00,CLR,,0.00,WeatherDisplay:10.37,2013-01-26 00:20:00,
2013-01-25 16:21:00,44.6,36.1,29.65,WSW,248,1.6,2.3,72,0.00,CLR,,0.00,WeatherDisplay:10.37,2013-01-26 00:21:00,
2013-01-25 16:23:00,44.6,36.1,29.65,SE,135,1.3,3.5,72,0.00,CLR,,0.00,WeatherDisplay:10.37,2013-01-26 00:23:00,
2013-01-25 16:25:00,44.6,36.1,29.65,SE,135,1.6,2.3,72,0.00,CLR,,0.00,WeatherDisplay:10.37,2013-01-26 00:25:00,
2013-01-25 16:26:00,44.4,36.0,29.65,SE,135,1.3,2.3,72,0.00,CLR,,0.00,WeatherDisplay:10.37,2013-01-26 00:26:00,
2013-01-25 16:28:00,44.4,36.0,29.65,NE,45,1.3,3.5,72,0.00,CLR,,0.00,WeatherDisplay:10.37,2013-01-26 00:28:00,
2013-01-25 16:30:00,29.5,22.2,29.59,WSW,242,1.0,1.0,74,0.00,CLR,CLR,0.00,WeatherDisplay:10.37,2013-01-26 00:30:00,
2013-01-25 16:31:00,44.2,36.1,29.65,NE,45,1.1,1.1,73,0.00,CLR,,0.00,WeatherDisplay:10.37,2013-01-26 00:31:00,
2013-01-25 16:33:00,44.2,36.1,29.65,North,0,0.8,0.0,73,0.00,CLR,,0.00,WeatherDisplay:10.37,2013-01-26 00:33:00,
2013-01-25 16:36:00,43.9,35.8,29.65,NNW,338,0.3,0.0,73,0.00,CLR,,0.00,WeatherDisplay:10.37,2013-01-26 00:36:00,
2013-01-25 16:37:00,43.9,35.8,29.65,NNW,338,0.3,0.0,73,0.00,CLR,,0.00,WeatherDisplay:10.37,2013-01-26 00:37:00,
2013-01-25 16:38:00,43.7,35.6,29.65,North,0,0.6,2.3,73,0.00,CLR,,0.00,WeatherDisplay:10.37,2013-01-26 00:38:00,
2013-01-25 16:41:00,43.7,35.6,29.65,North,0,0.6,2.3,73,0.00,CLR,,0.00,WeatherDisplay:10.37,2013-01-26 00:41:00,
2013-01-25 16:42:00,43.5,35.8,29.65,SE,135,0.8,2.3,74,0.00,CLR,,0.00,WeatherDisplay:10.37,2013-01-26 00:42:00,
2013-01-25 16:43:00,43.5,35.8,29.65,NNE,22,1.1,2.3,74,0.00,CLR,,0.00,WeatherDisplay:10.37,2013-01-26 00:43:00,
2013-01-25 16:46:00,43.5,36.1,29.65,WSW,248,1.5,3.5,75,0.00,CLR,,0.00,WeatherDisplay:10.37,2013-01-26 00:46:00,
2013-01-25 16:47:00,43.5,36.1,29.65,WSW,248,1.5,3.5,75,0.00,CLR,,0.00,WeatherDisplay:10.37,2013-01-26 00:47:00,
2013-01-25 16:48:00,43.3,35.9,29.65,SE,135,1.7,3.5,75,0.00,CLR,,0.00,WeatherDisplay:10.37,2013-01-26 00:48:00,
2013-01-25 16:51:00,43.2,35.8,29.65,NE,45,1.5,0.0,75,0.00,CLR,,0.00,WeatherDisplay:10.37,2013-01-26 00:51:00,
2013-01-25 16:52:00,43.0,35.6,29.65,North,0,1.6,2.3,75,0.00,CLR,,0.00,WeatherDisplay:10.37,2013-01-26 00:52:00,
2013-01-25 16:53:00,43.0,35.6,29.65,North,0,1.6,2.3,75,0.00,CLR,,0.00,WeatherDisplay:10.37,2013-01-26 00:53:00,
2013-01-25 16:54:00,43.0,35.6,29.65,NE,45,1.6,2.3,75,0.00,CLR,,0.00,WeatherDisplay:10.37,2013-01-26 00:54:00,
2013-01-25 16:56:00,42.8,35.4,29.65,NNE,22,1.5,5.8,75,0.00,CLR,,0.00,WeatherDisplay:10.37,2013-01-26 00:56:00,
2013-01-25 16:57:00,42.8,35.4,29.65,NNE,22,1.5,2.4,75,0.00,CLR,,0.00,WeatherDisplay:10.37,2013-01-26 00:57:00,
2013-01-25 16:58:00,42.8,35.8,29.65,NW,315,1.4,2.3,76,0.00,CLR,,0.00,WeatherDisplay:10.37,2013-01-26 00:58:00,
2013-01-25 16:59:00,42.8,35.8,29.65,NW,315,1.4,2.3,76,0.00,CLR,,0.00,WeatherDisplay:10.37,2013-01-26 00:59:00,
2013-01-25 17:00:00,28.4,21.8,29.59,NNE,23,0.0,2.0,76,0.00,CL,CL,0.00,WeatherDisplay:10.37,2013-01-26 01:00:00,
2013-01-25 17:01:00,42.6,35.9,29.65,SSW,202,1.3,0.0,77,0.00,CLR,,0.00,WeatherDisplay:10.37,2013-01-26 01:01:00,
2013-01-25 17:02:00,42.4,35.7,29.65,NW,315,1.1,0.0,77,0.00,CLR,,0.00,WeatherDisplay:10.37,2013-01-26 01:02:00,
2013-01-25 17:03:00,42.4,35.7,29.65,NW,315,1.1,0.0,77,0.00,CLR,,0.00,WeatherDisplay:10.37,2013-01-26 01:03:00,
2013-01-25 17:04:00,42.4,35.7,29.63,NW,315,1.1,4.6,77,0.00,CLR,,0.00,WeatherDisplay:10.37,2013-01-26 01:04:00,
2013-01-25 18:00:00,31.6,24.6,29.60,NW,315,1.0,2.0,75,0.00,CL,CL,0.00,WeatherDisplay:10.37,2013-01-26 02:00:00,
2013-01-25 18:15:00,42.3,35.6,29.63,NNW,338,1.0,4.6,77,0.00,CLR,,0.00,WeatherDisplay:10.37,2013-01-26 02:15:00,
2013-01-25 18:20:00,42.3,35.6,29.63,NNW,338,1.0,1.1,77,0.00,CLR,,0.00,WeatherDisplay:10.37,2013-01-26 02:20:00,
2013-01-25 18:25:00,42.3,35.6,29.63,NNW,338,1.0,1.1,77,0.00,CLR,,0.00,WeatherDisplay:10.37,2013-01-26 02:25:00,
2013-01-25 18:30:00,42.3,35.6,29.63,NNW,338,1.0,1.5,77,0.00,CLR,,0.00,WeatherDisplay:10.37,2013-01-26 02:30:00,
2013-01-25 18:35:00,42.3,35.6,29.63,NNW,338,1.0,1.1,77,0.00,CLR,,0.00,WeatherDisplay:10.37,2013-01-26 02:35:00,
2013-01-25 18:36:00,42.3,35.6,29.63,NNW,338,1.0,1.1,77,0.00,CLR,,0.00,WeatherDisplay:10.37,2013-01-26 02:36:00,
2013-01-25 18:40:00,42.3,35.6,29.63,NNW,338,1.0,1.5,77,0.00,CLR,,0.00,WeatherDisplay:10.37,2013-01-26 02:40:00,
2013-01-25 18:41:00,42.3,35.6,29.63,NNW,338,1.0,1.5,77,0.00,CLR,,0.00,WeatherDisplay:10.37,2013-01-26 02:41:00,
2013-01-25 18:45:00,42.3,35.6,29.63,NNW,338,1.0,1.1,77,0.00,CLR,,0.00,WeatherDisplay:10.37,2013-01-26 02:45:00,
2013-01-25 18:46:00,42.3,35.6,29.63,NNW,338,1.0,1.1,77,0.00,CLR,,0.00,WeatherDisplay:10.37,2013-01-26 02:46:00,
2013-01-25 18:50:00,42.3,35.6,29.63,NNW,338,1.0,1.1,77,0.00,CLR,,0.00,WeatherDisplay:10.37,2013-01-26 02:50:00,
2013-01-25 18:51:00,42.3,35.6,29.63,NNW,338,1.0,1.1,77,0.00,CLR,,0.00,WeatherDisplay:10.37,2013-01-26 02:51:00,
2013-01-25 18:55:00,42.3,35.6,29.63,NNW,338,1.0,1.1,77,0.00,CLR,,0.00,WeatherDisplay:10.37,2013-01-26 02:55:00,
2013-01-25 18:56:00,42.3,35.6,29.63,NNW,338,1.0,1.1,77,0.00,CLR,,0.00,WeatherDisplay:10.37,2013-01-26 02:56:00,
2013-01-25 18:57:00,42.3,35.6,29.63,NNW,338,1.0,1.1,77,0.00,CLR,,0.00,WeatherDisplay:10.37,2013-01-26 02:57:00,
2013-01-25 19:00:00,35.5,26.0,29.61,NNW,338,2.0,3.0,68,0.00,CL,CL,0.00,WeatherDisplay:10.37,2013-01-26 03:00:00,
2013-01-25 19:01:00,42.3,35.6,29.63,NNW,338,1.0,1.5,77,0.00,CLR,,0.00,WeatherDisplay:10.37,2013-01-26 03:01:00,
2013-01-25 19:02:00,42.3,35.6,29.63,NNW,338,1.0,1.1,77,0.00,CLR,,0.00,WeatherDisplay:10.37,2013-01-26 03:02:00,
2013-01-25 19:06:00,42.3,35.6,29.63,NNW,338,1.0,1.1,77,0.00,CLR,,0.00,WeatherDisplay:10.37,2013-01-26 03:06:00,
2013-01-25 19:07:00,42.3,35.6,29.63,NNW,338,1.0,1.5,77,0.00,CLR,,0.00,WeatherDisplay:10.37,2013-01-26 03:07:00,
2013-01-25 19:11:00,42.3,35.6,29.63,NNW,338,1.0,1.1,77,0.00,CLR,,0.00,WeatherDisplay:10.37,2013-01-26 03:11:00,
2013-01-25 19:12:00,42.3,35.6,29.63,NNW,338,1.0,1.5,77,0.00,CLR,,0.00,WeatherDisplay:10.37,2013-01-26 03:12:00,
2013-01-25 19:16:00,42.3,35.6,29.63,NNW,338,1.0,1.1,77,0.00,CLR,,0.00,WeatherDisplay:10.37,2013-01-26 03:16:00,
2013-01-25 19:17:00,42.3,35.6,29.63,NNW,338,1.0,1.5,77,0.00,CLR,,0.00,WeatherDisplay:10.37,2013-01-26 03:17:00,
2013-01-25 19:21:00,42.3,35.6,29.63,NNW,338,1.0,1.5,77,0.00,CLR,,0.00,WeatherDisplay:10.37,2013-01-26 03:21:00,
2013-01-25 19:22:00,42.3,35.6,29.63,NNW,338,1.0,1.1,77,0.00,CLR,,0.00,WeatherDisplay:10.37,2013-01-26 03:22:00,
2013-01-25 19:27:00,42.3,35.6,29.63,NNW,338,1.0,1.5,77,0.00,CLR,,0.00,WeatherDisplay:10.37,2013-01-26 03:27:00,
2013-01-25 19:28:00,42.3,35.6,29.63,NNW,338,1.0,1.1,77,0.00,CLR,,0.00,WeatherDisplay:10.37,2013-01-26 03:28:00,
2013-01-25 19:32:00,42.3,35.6,29.63,NNW,338,1.0,1.5,77,0.00,CLR,,0.00,WeatherDisplay:10.37,2013-01-26 03:32:00,
2013-01-25 19:33:00,42.3,35.6,29.63,NNW,338,1.0,1.1,77,0.00,CLR,,0.00,WeatherDisplay:10.37,2013-01-26 03:33:00,
2013-01-25 19:37:00,42.3,35.6,29.63,NNW,338,1.0,1.1,77,0.00,CLR,,0.00,WeatherDisplay:10.37,2013-01-26 03:37:00,
2013-01-25 19:38:00,42.3,35.6,29.63,NNW,338,1.0,1.5,77,0.00,CLR,,0.00,WeatherDisplay:10.37,2013-01-26 03:38:00,
2013-01-25 19:42:00,42.3,35.6,29.63,NNW,338,1.0,1.1,77,0.00,CLR,,0.00,WeatherDisplay:10.37,2013-01-26 03:42:00,
2013-01-25 19:43:00,42.3,35.6,29.63,NNW,338,1.0,1.1,77,0.00,CLR,,0.00,WeatherDisplay:10.37,2013-01-26 03:43:00,
2013-01-25 19:47:00,42.3,35.6,29.63,NNW,338,1.0,1.1,77,0.00,CLR,,0.00,WeatherDisplay:10.37,2013-01-26 03:47:00,
2013-01-25 19:48:00,42.3,35.6,29.63,NNW,338,1.0,1.1,77,0.00,CLR,,0.00,WeatherDisplay:10.37,2013-01-26 03:48:00,
2013-01-25 19:52:00,42.3,35.6,29.63,NNW,338,1.0,1.5,77,0.00,CLR,,0.00,WeatherDisplay:10.37,2013-01-26 03:52:00,
2013-01-25 19:53:00,42.3,35.6,29.63,NNW,338,1.0,1.1,77,0.00,CLR,,0.00,WeatherDisplay:10.37,2013-01-26 03:53:00,
2013-01-25 19:54:00,42.3,35.6,29.63,NNW,338,1.0,1.1,77,0.00,CLR,,0.00,WeatherDisplay:10.37,2013-01-26 03:54:00,
2013-01-25 19:57:00,42.3,35.6,29.63,NNW,338,1.0,1.1,77,0.00,CLR,,0.00,WeatherDisplay:10.37,2013-01-26 03:57:00,
2013-01-25 19:58:00,42.3,35.6,29.63,NNW,338,1.0,1.1,77,0.00,CLR,,0.00,WeatherDisplay:10.37,2013-01-26 03:58:00,
2013-01-25 19:59:00,42.3,35.6,29.63,NNW,338,1.0,1.1,77,0.00,CLR,,0.00,WeatherDisplay:10.37,2013-01-26 03:59:00,
2013-01-25 20:00:00,41.5,26.9,29.60,NNW,338,2.0,5.0,56,0.00,CL,CL,0.00,WeatherDisplay:10.37,2013-01-26 04:00:00,
2013-01-25 20:02:00,42.3,35.6,29.63,NNW,338,1.0,1.1,77,0.00,CLR,,0.00,WeatherDisplay:10.37,2013-01-26 04:02:00,
2013-01-25 20:03:00,42.3,35.6,29.63,NNW,338,1.0,1.1,77,0.00,CLR,,0.00,WeatherDisplay:10.37,2013-01-26 04:03:00,
2013-01-25 20:04:00,42.3,35.6,29.63,NNW,338,1.0,1.1,77,0.00,CLR,,0.00,WeatherDisplay:10.37,2013-01-26 04:04:00,
2013-01-25 20:07:00,42.3,35.6,29.63,NNW,338,1.0,1.1,77,0.00,CLR,,0.00,WeatherDisplay:10.37,2013-01-26 04:07:00,
2013-01-25 20:08:00,42.3,35.6,29.63,NNW,338,1.0,1.1,77,0.00,CLR,,0.00,WeatherDisplay:10.37,2013-01-26 04:08:00,
2013-01-25 20:09:00,42.3,35.6,29.63,NNW,338,1.0,1.1,77,0.00,CLR,,0.00,WeatherDisplay:10.37,2013-01-26 04:09:00,
2013-01-25 20:12:00,42.3,35.6,29.63,NNW,338,1.0,1.1,77,0.00,CLR,,0.00,WeatherDisplay:10.37,2013-01-26 04:12:00,
2013-01-25 20:13:00,42.3,35.6,29.63,NNW,338,1.0,1.5,77,0.00,CLR,,0.00,WeatherDisplay:10.37,2013-01-26 04:13:00,
2013-01-25 20:14:00,42.3,35.6,29.63,NNW,338,1.0,1.1,77,0.00,CLR,,0.00,WeatherDisplay:10.37,2013-01-26 04:14:00,
2013-01-25 20:16:00,42.3,35.6,29.63,NNW,338,1.0,1.1,77,0.00,CLR,,0.00,WeatherDisplay:10.37,2013-01-26 04:16:00,
2013-01-25 20:17:00,42.3,35.6,29.63,NNW,338,1.0,1.1,77,0.00,CLR,,0.00,WeatherDisplay:10.37,2013-01-26 04:17:00,
2013-01-25 20:18:00,42.3,35.6,29.63,NNW,338,1.0,1.5,77,0.00,CLR,,0.00,WeatherDisplay:10.37,2013-01-26 04:18:00,
2013-01-25 20:19:00,42.3,35.6,29.63,NNW,338,1.0,1.1,77,0.00,CLR,,0.00,WeatherDisplay:10.37,2013-01-26 04:19:00,
2013-01-25 20:21:00,42.3,35.6,29.63,NNW,338,1.0,1.1,77,0.00,CLR,,0.00,WeatherDisplay:10.37,2013-01-26 04:21:00,
2013-01-25 20:23:00,42.3,35.6,29.63,NNW,338,1.0,1.1,77,0.00,CLR,,0.00,WeatherDisplay:10.37,2013-01-26 04:23:00,
2013-01-25 20:24:00,42.3,35.6,29.63,NNW,338,1.0,1.1,77,0.00,CLR,,0.00,WeatherDisplay:10.37,2013-01-26 04:24:00,
2013-01-25 20:26:00,42.3,35.6,29.63,NNW,338,1.0,1.5,77,0.00,CLR,,0.00,WeatherDisplay:10.37,2013-01-26 04:26:00,
2013-01-25 20:28:00,42.3,35.6,29.63,NNW,338,1.0,1.1,77,0.00,CLR,,0.00,WeatherDisplay:10.37,2013-01-26 04:28:00,
2013-01-25 20:29:00,42.3,35.6,29.63,NNW,338,1.0,1.5,77,0.00,CLR,,0.00,WeatherDisplay:10.37,2013-01-26 04:29:00,
2013-01-25 20:31:00,42.3,35.6,29.63,NNW,338,1.0,1.1,77,0.00,CLR,,0.00,WeatherDisplay:10.37,2013-01-26 04:31:00,
2013-01-25 20:33:00,42.3,35.6,29.63,NNW,338,1.0,1.1,77,0.00,CLR,,0.00,WeatherDisplay:10.37,2013-01-26 04:33:00,
2013-01-25 20:34:00,42.3,35.6,29.63,NNW,338,1.0,1.5,77,0.00,CLR,,0.00,WeatherDisplay:10.37,2013-01-26 04:34:00,
2013-01-25 20:36:00,42.3,35.6,29.63,NNW,338,1.0,1.1,77,0.00,CLR,,0.00,WeatherDisplay:10.37,2013-01-26 04:36:00,
2013-01-25 20:38:00,42.3,35.6,29.63,NNW,338,1.0,1.5,77,0.00,CLR,,0.00,WeatherDisplay:10.37,2013-01-26 04:38:00,
2013-01-25 20:39:00,42.3,35.6,29.63,NNW,338,1.0,1.5,77,0.00,CLR,,0.00,WeatherDisplay:10.37,2013-01-26 04:39:00,
2013-01-25 20:42:00,42.3,35.6,29.63,NNW,338,1.0,1.1,77,0.00,CLR,,0.00,WeatherDisplay:10.37,2013-01-26 04:42:00,
2013-01-25 20:43:00,42.3,35.6,29.63,NNW,338,1.0,1.1,77,0.00,CLR,,0.00,WeatherDisplay:10.37,2013-01-26 04:43:00,
2013-01-25 20:44:00,42.3,35.6,29.63,NNW,338,1.0,1.1,77,0.00,CLR,,0.00,WeatherDisplay:10.37,2013-01-26 04:44:00,
2013-01-25 20:47:00,42.3,35.6,29.63,NNW,338,1.0,1.5,77,0.00,CLR,,0.00,WeatherDisplay:10.37,2013-01-26 04:47:00,
2013-01-25 20:48:00,42.3,35.6,29.63,NNW,338,1.0,1.5,77,0.00,CLR,,0.00,WeatherDisplay:10.37,2013-01-26 04:48:00,
2013-01-25 20:49:00,42.3,35.6,29.63,NNW,338,1.0,1.1,77,0.00,CLR,,0.00,WeatherDisplay:10.37,2013-01-26 04:49:00,
2013-01-25 20:50:00,42.3,35.6,29.63,NNW,338,1.0,1.5,77,0.00,CLR,,0.00,WeatherDisplay:10.37,2013-01-26 04:50:00,
2013-01-25 20:52:00,42.3,35.6,29.63,NNW,338,1.0,1.1,77,0.00,CLR,,0.00,WeatherDisplay:10.37,2013-01-26 04:52:00,
2013-01-25 20:53:00,42.3,35.6,29.63,NNW,338,1.0,1.1,77,0.00,CLR,,0.00,WeatherDisplay:10.37,2013-01-26 04:53:00,
2013-01-25 20:55:00,42.3,35.6,29.63,NNW,338,1.0,1.5,77,0.00,CLR,,0.00,WeatherDisplay:10.37,2013-01-26 04:55:00,
2013-01-25 20:57:00,42.3,35.6,29.63,NNW,338,1.0,1.5,77,0.00,CLR,,0.00,WeatherDisplay:10.37,2013-01-26 04:57:00,
2013-01-25 20:58:00,42.3,35.6,29.63,NNW,338,1.0,1.1,77,0.00,CLR,,0.00,WeatherDisplay:10.37,2013-01-26 04:58:00,
2013-01-25 21:00:00,42.3,35.6,29.63,NNW,338,1.0,1.1,77,0.00,CLR,,0.00,WeatherDisplay:10.37,2013-01-26 05:00:00,
2013-01-25 21:03:00,42.3,35.6,29.63,NNW,338,1.0,1.1,77,0.00,CLR,,0.00,WeatherDisplay:10.37,2013-01-26 05:03:00,
2013-01-25 21:05:00,42.3,35.6,29.63,NNW,338,1.0,1.5,77,0.00,CLR,,0.00,WeatherDisplay:10.37,2013-01-26 05:05:00,
2013-01-25 21:08:00,42.3,35.6,29.63,NNW,338,1.0,1.1,77,0.00,CLR,,0.00,WeatherDisplay:10.37,2013-01-26 05:08:00,
2013-01-25 21:10:00,42.3,35.6,29.63,NNW,338,1.0,1.5,77,0.00,CLR,,0.00,WeatherDisplay:10.37,2013-01-26 05:10:00,
2013-01-25 21:13:00,42.3,35.6,29.63,NNW,338,1.0,1.1,77,0.00,CLR,,0.00,WeatherDisplay:10.37,2013-01-26 05:13:00,
2013-01-25 21:15:00,42.3,35.6,29.63,NNW,338,1.0,1.1,77,0.00,CLR,,0.00,WeatherDisplay:10.37,2013-01-26 05:15:00,
2013-01-25 21:18:00,42.3,35.6,29.63,NNW,338,1.0,1.1,77,0.00,CLR,,0.00,WeatherDisplay:10.37,2013-01-26 05:18:00,
2013-01-25 21:20:00,42.3,35.6,29.63,NNW,338,1.0,1.1,77,0.00,CLR,,0.00,WeatherDisplay:10.37,2013-01-26 05:20:00,
2013-01-25 21:23:00,42.3,35.6,29.63,NNW,338,1.0,1.5,77,0.00,CLR,,0.00,WeatherDisplay:10.37,2013-01-26 05:23:00,
2013-01-25 21:25:00,42.3,35.6,29.63,NNW,338,1.0,1.5,77,0.00,CLR,,0.00,WeatherDisplay:10.37,2013-01-26 05:25:00,
2013-01-25 21:26:00,42.3,35.6,29.63,NNW,338,1.0,1.1,77,0.00,CLR,,0.00,WeatherDisplay:10.37,2013-01-26 05:26:00,
2013-01-25 21:28:00,42.3,35.6,29.63,NNW,338,1.0,1.1,77,0.00,CLR,,0.00,WeatherDisplay:10.37,2013-01-26 05:28:00,
2013-01-25 21:30:00,42.3,35.6,29.63,NNW,338,1.0,1.5,77,0.00,CLR,,0.00,WeatherDisplay:10.37,2013-01-26 05:30:00,
2013-01-25 21:31:00,42.3,35.6,29.63,NNW,338,1.0,1.1,77,0.00,CLR,,0.00,WeatherDisplay:10.37,2013-01-26 05:31:00,
2013-01-25 21:33:00,42.3,35.6,29.63,NNW,338,1.0,1.5,77,0.00,CLR,,0.00,WeatherDisplay:10.37,2013-01-26 05:33:00,
2013-01-25 21:35:00,42.3,35.6,29.63,NNW,338,1.0,1.1,77,0.00,CLR,,0.00,WeatherDisplay:10.37,2013-01-26 05:35:00,
2013-01-25 21:36:00,42.3,35.6,29.63,NNW,338,1.0,1.1,77,0.00,CLR,,0.00,WeatherDisplay:10.37,2013-01-26 05:36:00,
2013-01-25 21:38:00,42.3,35.6,29.63,NNW,338,1.0,1.5,77,0.00,CLR,,0.00,WeatherDisplay:10.37,2013-01-26 05:38:00,
2013-01-25 21:40:00,42.3,35.6,29.63,NNW,338,1.0,1.1,77,0.00,CLR,,0.00,WeatherDisplay:10.37,2013-01-26 05:40:00,
2013-01-25 21:41:00,42.3,35.6,29.63,NNW,338,1.0,1.5,77,0.00,CLR,,0.00,WeatherDisplay:10.37,2013-01-26 05:41:00,
2013-01-25 21:44:00,42.3,35.6,29.63,NNW,338,1.0,1.5,77,0.00,CLR,,0.00,WeatherDisplay:10.37,2013-01-26 05:44:00,
2013-01-25 21:45:00,42.3,35.6,29.63,NNW,338,1.0,1.5,77,0.00,CLR,,0.00,WeatherDisplay:10.37,2013-01-26 05:45:00,
2013-01-25 21:46:00,42.3,35.6,29.63,NNW,338,1.0,1.1,77,0.00,CLR,,0.00,WeatherDisplay:10.37,2013-01-26 05:46:00,
2013-01-25 21:49:00,42.3,35.6,29.63,NNW,338,1.0,1.1,77,0.00,CLR,,0.00,WeatherDisplay:10.37,2013-01-26 05:49:00,
2013-01-25 21:50:00,42.3,35.6,29.63,NNW,338,1.0,1.1,77,0.00,CLR,,0.00,WeatherDisplay:10.37,2013-01-26 05:50:00,
2013-01-25 21:51:00,42.3,35.6,29.63,NNW,338,1.0,1.1,77,0.00,CLR,,0.00,WeatherDisplay:10.37,2013-01-26 05:51:00,
2013-01-25 21:54:00,42.3,35.6,29.63,NNW,338,1.0,1.1,77,0.00,CLR,,0.00,WeatherDisplay:10.37,2013-01-26 05:54:00,
2013-01-25 21:56:00,42.3,35.6,29.63,NNW,338,1.0,1.5,77,0.00,CLR,,0.00,WeatherDisplay:10.37,2013-01-26 05:56:00,
2013-01-25 21:57:00,42.3,35.6,29.63,NNW,338,1.0,1.1,77,0.00,CLR,,0.00,WeatherDisplay:10.37,2013-01-26 05:57:00,
2013-01-25 21:59:00,42.3,35.6,29.63,NNW,338,1.0,1.5,77,0.00,CLR,,0.00,WeatherDisplay:10.37,2013-01-26 05:59:00,
2013-01-25 22:00:00,42.3,23.5,29.58,NW,315,2.0,7.0,47,0.00,CL,CL,0.00,WeatherDisplay:10.37,2013-01-26 06:00:00,
2013-01-25 22:01:00,42.3,35.6,29.63,NNW,338,1.0,1.1,77,0.00,CLR,,0.00,WeatherDisplay:10.37,2013-01-26 06:01:00,
2013-01-25 22:02:00,42.3,35.6,29.63,NNW,338,1.0,1.5,77,0.00,CLR,,0.00,WeatherDisplay:10.37,2013-01-26 06:02:00,
2013-01-25 22:04:00,42.3,35.6,29.63,NNW,338,1.0,1.1,77,0.00,CLR,,0.00,WeatherDisplay:10.37,2013-01-26 06:04:00,
2013-01-25 22:06:00,42.3,35.6,29.63,NNW,338,1.0,1.1,77,0.00,CLR,,0.00,WeatherDisplay:10.37,2013-01-26 06:06:00,
2013-01-25 22:07:00,42.3,35.6,29.63,NNW,338,1.0,1.1,77,0.00,CLR,,0.00,WeatherDisplay:10.37,2013-01-26 06:07:00,
2013-01-25 22:09:00,42.3,35.6,29.63,NNW,338,1.0,1.5,77,0.00,CLR,,0.00,WeatherDisplay:10.37,2013-01-26 06:09:00,
2013-01-25 22:11:00,42.3,35.6,29.63,NNW,338,1.0,1.1,77,0.00,CLR,,0.00,WeatherDisplay:10.37,2013-01-26 06:11:00,
2013-01-25 22:12:00,42.3,35.6,29.63,NNW,338,1.0,1.5,77,0.00,CLR,,0.00,WeatherDisplay:10.37,2013-01-26 06:12:00,
2013-01-25 22:14:00,42.3,35.6,29.63,NNW,338,1.0,1.1,77,0.00,CLR,,0.00,WeatherDisplay:10.37,2013-01-26 06:14:00,
2013-01-25 22:16:00,42.3,35.6,29.63,NNW,338,1.0,1.1,77,0.00,CLR,,0.00,WeatherDisplay:10.37,2013-01-26 06:16:00,
2013-01-25 22:17:00,42.3,35.6,29.63,NNW,338,1.0,1.5,77,0.00,CLR,,0.00,WeatherDisplay:10.37,2013-01-26 06:17:00,
2013-01-25 22:19:00,42.3,35.6,29.63,NNW,338,1.0,1.1,77,0.00,CLR,,0.00,WeatherDisplay:10.37,2013-01-26 06:19:00,
2013-01-25 22:22:00,42.3,35.6,29.63,NNW,338,1.0,1.5,77,0.00,CLR,,0.00,WeatherDisplay:10.37,2013-01-26 06:22:00,
2013-01-25 22:24:00,42.3,35.6,29.63,NNW,338,1.0,1.1,77,0.00,CLR,,0.00,WeatherDisplay:10.37,2013-01-26 06:24:00,
2013-01-25 22:27:00,42.3,35.6,29.63,NNW,338,1.0,1.5,77,0.00,CLR,,0.00,WeatherDisplay:10.37,2013-01-26 06:27:00,
2013-01-25 22:29:00,42.3,35.6,29.63,NNW,338,1.0,1.5,77,0.00,CLR,,0.00,WeatherDisplay:10.37,2013-01-26 06:29:00,
2013-01-25 22:32:00,42.3,35.6,29.63,NNW,338,1.0,1.1,77,0.00,CLR,,0.00,WeatherDisplay:10.37,2013-01-26 06:32:00,
2013-01-25 22:34:00,42.3,35.6,29.63,NNW,338,1.0,1.5,77,0.00,CLR,,0.00,WeatherDisplay:10.37,2013-01-26 06:34:00,
2013-01-25 22:35:00,42.3,35.6,29.63,NNW,338,1.0,1.5,77,0.00,CLR,,0.00,WeatherDisplay:10.37,2013-01-26 06:35:00,
2013-01-25 22:37:00,42.3,35.6,29.63,NNW,338,1.0,1.5,77,0.00,CLR,,0.00,WeatherDisplay:10.37,2013-01-26 06:37:00,
2013-01-25 22:39:00,42.3,35.6,29.63,NNW,338,1.0,1.1,77,0.00,CLR,,0.00,WeatherDisplay:10.37,2013-01-26 06:39:00,
2013-01-25 22:40:00,42.3,35.6,29.63,NNW,338,1.0,1.1,77,0.00,CLR,,0.00,WeatherDisplay:10.37,2013-01-26 06:40:00,
2013-01-25 22:42:00,42.3,35.6,29.63,NNW,338,1.0,1.1,77,0.00,CLR,,0.00,WeatherDisplay:10.37,2013-01-26 06:42:00,
2013-01-25 22:43:00,42.3,35.6,29.63,NNW,338,1.0,1.5,77,0.00,CLR,,0.00,WeatherDisplay:10.37,2013-01-26 06:43:00,
2013-01-25 22:44:00,42.3,35.6,29.63,NNW,338,1.0,1.1,77,0.00,CLR,,0.00,WeatherDisplay:10.37,2013-01-26 06:44:00,
2013-01-25 22:45:00,42.3,35.6,29.63,NNW,338,1.0,1.1,77,0.00,CLR,,0.00,WeatherDisplay:10.37,2013-01-26 06:45:00,
2013-01-25 22:48:00,42.3,35.6,29.63,NNW,338,1.0,1.1,77,0.00,CLR,,0.00,WeatherDisplay:10.37,2013-01-26 06:48:00,
2013-01-25 22:49:00,42.3,35.6,29.63,NNW,338,1.0,1.5,77,0.00,CLR,,0.00,WeatherDisplay:10.37,2013-01-26 06:49:00,
2013-01-25 22:50:00,42.3,35.6,29.63,NNW,338,1.0,1.1,77,0.00,CLR,,0.00,WeatherDisplay:10.37,2013-01-26 06:50:00,
2013-01-25 22:53:00,42.3,35.6,29.63,NNW,338,1.0,1.1,77,0.00,CLR,,0.00,WeatherDisplay:10.37,2013-01-26 06:53:00,
2013-01-25 22:54:00,42.3,35.6,29.63,NNW,338,1.0,1.5,77,0.00,CLR,,0.00,WeatherDisplay:10.37,2013-01-26 06:54:00,
2013-01-25 22:55:00,42.3,35.6,29.63,NNW,338,1.0,1.5,77,0.00,CLR,,0.00,WeatherDisplay:10.37,2013-01-26 06:55:00,
2013-01-25 22:58:00,42.3,35.6,29.63,NNW,338,1.0,1.1,77,0.00,CLR,,0.00,WeatherDisplay:10.37,2013-01-26 06:58:00,
2013-01-25 22:59:00,42.3,35.6,29.63,NNW,338,1.0,1.1,77,0.00,CLR,,0.00,WeatherDisplay:10.37,2013-01-26 06:59:00,
2013-01-25 23:00:00,42.3,35.6,29.63,NNW,338,1.0,1.1,77,0.00,CLR,,0.00,WeatherDisplay:10.37,2013-01-26 07:00:00,
2013-01-25 23:03:00,42.3,35.6,29.63,NNW,338,1.0,1.5,77,0.00,CLR,,0.00,WeatherDisplay:10.37,2013-01-26 07:03:00,
2013-01-25 23:05:00,42.3,35.6,29.63,NNW,338,1.0,1.1,77,0.00,CLR,,0.00,WeatherDisplay:10.37,2013-01-26 07:05:00,
2013-01-25 23:08:00,42.3,35.6,29.63,NNW,338,1.0,1.1,77,0.00,CLR,,0.00,WeatherDisplay:10.37,2013-01-26 07:08:00,
2013-01-25 23:10:00,42.3,35.6,29.63,NNW,338,1.0,1.5,77,0.00,CLR,,0.00,WeatherDisplay:10.37,2013-01-26 07:10:00,
2013-01-25 23:13:00,42.3,35.6,29.63,NNW,338,1.0,1.1,77,0.00,CLR,,0.00,WeatherDisplay:10.37,2013-01-26 07:13:00,
2013-01-25 23:15:00,42.3,35.6,29.63,NNW,338,1.0,1.5,77,0.00,CLR,,0.00,WeatherDisplay:10.37,2013-01-26 07:15:00,
2013-01-25 23:16:00,42.3,35.6,29.63,NNW,338,1.0,1.5,77,0.00,CLR,,0.00,WeatherDisplay:10.37,2013-01-26 07:16:00,
2013-01-25 23:18:00,42.3,35.6,29.63,NNW,338,1.0,1.1,77,0.00,CLR,,0.00,WeatherDisplay:10.37,2013-01-26 07:18:00,
2013-01-25 23:20:00,42.3,35.6,29.63,NNW,338,1.0,1.5,77,0.00,CLR,,0.00,WeatherDisplay:10.37,2013-01-26 07:20:00,
2013-01-25 23:21:00,42.3,35.6,29.63,NNW,338,1.0,1.1,77,0.00,CLR,,0.00,WeatherDisplay:10.37,2013-01-26 07:21:00,
2013-01-25 23:23:00,42.3,35.6,29.63,NNW,338,1.0,1.1,77,0.00,CLR,,0.00,WeatherDisplay:10.37,2013-01-26 07:23:00,
2013-01-25 23:24:00,42.3,35.6,29.63,NNW,338,1.0,1.1,77,0.00,CLR,,0.00,WeatherDisplay:10.37,2013-01-26 07:24:00,
2013-01-25 23:25:00,42.3,35.6,29.63,NNW,338,1.0,1.1,77,0.00,CLR,,0.00,WeatherDisplay:10.37,2013-01-26 07:25:00,
2013-01-25 23:26:00,42.3,35.6,29.63,NNW,338,1.0,1.1,77,0.00,CLR,,0.00,WeatherDisplay:10.37,2013-01-26 07:26:00,
2013-01-25 23:28:00,42.3,35.6,29.63,NNW,338,1.0,1.5,77,0.00,CLR,,0.00,WeatherDisplay:10.37,2013-01-26 07:28:00,
2013-01-25 23:29:00,42.3,35.6,29.63,NNW,338,1.0,1.5,77,0.00,CLR,,0.00,WeatherDisplay:10.37,2013-01-26 07:29:00,
2013-01-25 23:31:00,42.3,35.6,29.63,NNW,338,1.0,1.1,77,0.00,CLR,,0.00,WeatherDisplay:10.37,2013-01-26 07:31:00,
2013-01-25 23:34:00,42.3,35.6,29.63,NNW,338,1.0,1.1,77,0.00,CLR,,0.00,WeatherDisplay:10.37,2013-01-26 07:34:00,
2013-01-25 23:36:00,42.3,35.6,29.63,NNW,338,1.0,1.1,77,0.00,CLR,,0.00,WeatherDisplay:10.37,2013-01-26 07:36:00,
2013-01-25 23:39:00,42.3,35.6,29.63,NNW,338,1.0,1.1,77,0.00,CLR,,0.00,WeatherDisplay:10.37,2013-01-26 07:39:00,
2013-01-25 23:41:00,42.3,35.6,29.63,NNW,338,1.0,1.5,77,0.00,CLR,,0.00,WeatherDisplay:10.37,2013-01-26 07:41:00,
2013-01-25 23:44:00,42.3,35.6,29.63,NNW,338,1.0,1.5,77,0.00,CLR,,0.00,WeatherDisplay:10.37,2013-01-26 07:44:00,
2013-01-25 23:46:00,42.3,35.6,29.63,NNW,338,1.0,1.1,77,0.00,CLR,,0.00,WeatherDisplay:10.37,2013-01-26 07:46:00,
2013-01-25 23:49:00,42.3,35.6,29.63,NNW,338,1.0,1.5,77,0.00,CLR,,0.00,WeatherDisplay:10.37,2013-01-26 07:49:00,
2013-01-25 23:50:00,42.3,35.6,29.63,NNW,338,1.0,1.1,77,0.00,CLR,,0.00,WeatherDisplay:10.37,2013-01-26 07:50:00,
2013-01-25 23:51:00,42.3,35.6,29.63,NNW,338,1.0,1.1,77,0.00,CLR,,0.00,WeatherDisplay:10.37,2013-01-26 07:51:00,
2013-01-25 23:52:00,42.3,35.6,29.63,NNW,338,1.0,1.1,77,0.00,CLR,,0.00,WeatherDisplay:10.37,2013-01-26 07:52:00,
2013-01-25 23:54:00,42.3,35.6,29.63,NNW,338,1.0,1.5,77,0.00,CLR,,0.00,WeatherDisplay:10.37,2013-01-26 07:54:00,
2013-01-25 23:55:00,42.3,35.6,29.63,NNW,338,1.0,1.1,77,0.00,CLR,,0.00,WeatherDisplay:10.37,2013-01-26 07:55:00,
2013-01-25 23:56:00,42.3,35.6,29.63,NNW,338,1.0,1.1,77,0.00,CLR,,0.00,WeatherDisplay:10.37,2013-01-26 07:56:00,
2013-01-25 23:57:00,42.3,35.6,29.63,NNW,338,1.0,1.5,77,0.00,CLR,,0.00,WeatherDisplay:10.37,2013-01-26 07:57:00,
2013-01-25 23:59:00,42.3,35.6,29.63,NNW,338,1.0,1.5,77,0.00,CLR,,0.00,WeatherDisplay:10.37,2013-01-26 07:59:00,